This demonstration page uses our WeatherBlox Daily Observations layout. Learn more.

38.89511, -77.03637

Hourly Observations for October 13, 2020

Temp ( °F °C ) Dew Point ( °F °C ) Humidity (%) Winds ( mph kmh ) Pressure ( in mb ) Visibility ( mi km ) Precip ( " mm )
12:27 am 00:27 Cloudy with Drizzle 58 14.4 57 13.9 97 97 NNW 10 17 29.94 1014 4 6.43736 0.001 0.001
12:42 am 00:42 Cloudy with Drizzle 58 14.4 57 13.9 97 97 NNW 8 13 29.93 1014 4 6.43736 0.01 0.254
12:52 am 00:52 Cloudy with Drizzle 58 14.4 57 13.9 97 97 N 10 17 29.92 1013 7 11.26538 0.01 0.254
1:22 am 01:22 Cloudy with Drizzle 58 14.4 56 13.3 93 93 N 12 19 29.93 1014 5 8.0467 0.001 0.001
1:47 am 01:47 Cloudy 59 15 57 14 94 94 NNW 12 19 29.93 1014 10 16.0934 0.001 0.001
1:52 am 01:52 Cloudy 58 14.4 57 13.9 97 97 NNW 10 17 29.93 1014 10 16.0934 0.001 0.001
2:52 am 02:52 Cloudy 58 14.4 56 13.3 93 93 NNW 8 13 29.92 1013 10 16.0934 0 0
3:41 am 03:41 Cloudy 58 14.4 55 12.8 90 90 NW 6 9 29.91 1013 10 16.0934 0 0
3:52 am 03:52 Cloudy 58 14.4 55 12.8 90 90 NNW 7 11 29.91 1013 10 16.0934 0 0
4:40 am 04:40 Cloudy with Drizzle 57 13.9 55 12.8 93 93 NNW 12 19 29.91 1013 3 4.82802 0.001 0.001
4:52 am 04:52 Cloudy with Drizzle 56 13.3 55 12.8 97 97 NNW 10 17 29.91 1013 3 4.82802 0.001 0.001
5:52 am 05:52 Cloudy 57 13.9 55 12.8 93 93 N 6 9 29.9 1013 10 16.0934 0.001 0.001
6:26 am 06:26 Cloudy 57 13.9 55 12.8 93 93 NNW 6 9 29.91 1013 10 16.0934 0 0
6:52 am 06:52 Cloudy 57 13.9 55 12.8 93 93 NNW 9 15 29.92 1013 10 16.0934 0 0
7:33 am 07:33 Cloudy 57 13.9 55 12.8 93 93 NNW 7 11 29.92 1013 10 16.0934 0 0
7:52 am 07:52 Cloudy with Mist and Fog 57 13.9 55 12.8 93 93 NNW 8 13 29.93 1014 5 8.0467 0 0
8:52 am 08:52 Cloudy 58 14.4 56 13.3 93 93 NNW 12 19 29.94 1014 10 16.0934 0 0
9:52 am 09:52 Cloudy 59 15 57 13.9 93 93 NW 8 13 29.96 1015 10 16.0934 0 0
10:29 am 10:29 Cloudy 60 15.6 56 13.3 86 86 WNW 7 11 29.96 1015 10 16.0934 0 0
10:52 am 10:52 Cloudy 61 16.1 57 13.9 87 87 NNW 12 19 29.96 1015 10 16.0934 0 0
11:14 am 11:14 Cloudy 61 16.1 57 13.9 87 87 WNW 9 15 29.97 1015 10 16.0934 0 0
11:52 am 11:52 Cloudy 64 17.8 57 13.9 78 78 NNW 8 13 29.96 1015 10 16.0934 0 0
11:59 am 11:59 Cloudy 64 17.8 57 13.9 78 78 NW 7 11 29.96 1015 10 16.0934 0 0
12:52 pm 12:52 Mostly Cloudy 67 19.4 57 13.9 71 71 NW 14 22 29.94 1014 10 16.0934 0 0
1:21 pm 13:21 Partly Cloudy 67 19.4 57 13.9 71 71 NW 12 19 29.94 1014 10 16.0934 0 0
1:52 pm 13:52 Partly Cloudy 69 20.6 57 13.9 66 66 NNW 14 22 29.93 1013 10 16.0934 0 0
2:52 pm 14:52 Partly Cloudy 71 21.7 56 13.3 59 59 NW 15 24 29.91 1013 10 16.0934 0 0
3:52 pm 15:52 Partly Cloudy 72 22.2 54 12.2 53 53 NNW 17 28 29.91 1013 10 16.0934 0 0
4:52 pm 16:52 Mostly Sunny 72 22.2 52 11.1 50 50 NNW 16 26 29.91 1013 10 16.0934 0 0
5:52 pm 17:52 Mostly Sunny 70 21.1 50 10 49 49 NW 10 17 29.93 1014 10 16.0934 0 0
6:52 pm 18:52 Mostly Clear 65 18.3 50 10 59 59 NNW 10 17 29.93 1014 10 16.0934 0 0
7:52 pm 19:52 Mostly Clear 63 17.2 49 9.4 60 60 NW 9 15 29.97 1015 10 16.0934 0 0
8:52 pm 20:52 Mostly Clear 62 16.7 47 8.3 58 58 NNW 9 15 29.97 1015 10 16.0934 0 0
9:52 pm 21:52 Mostly Clear 61 16.1 46 7.8 58 58 NW 7 11 29.98 1015 10 16.0934 0 0
10:52 pm 22:52 Clear 60 15.6 46 7.8 60 60 Calm 30 1016 10 16.0934 0 0
11:52 pm 23:52 Clear 58 14.4 46 7.8 65 65 N 3 6 30 1016 10 16.0934 0 0

Powered by AerisWeather